Time,TemperatureF,DewpointF,PressureIn,WindDirection,WindDirectionDegrees,WindSpeedMPH,WindSpeedGustMPH,Humidity,HourlyPrecipIn,Conditions,Clouds,dailyrainin,SoftwareType,DateUTC
2013-06-14 00:01:00,54.0,52.3,29.50,NNE,24,20.7,20.7,94,0.03,RA,,0.00,WeatherDisplay:10.37,2013-06-14 04:01:00,
2013-06-14 00:06:00,53.9,52.2,29.50,NE,51,21.0,21.0,94,0.04,-RA,,0.01,WeatherDisplay:10.37,2013-06-14 04:06:00,
2013-06-14 00:11:00,53.8,52.1,29.50,NE,36,21.9,21.9,94,0.04,-RA,,0.01,WeatherDisplay:10.37,2013-06-14 04:11:00,
2013-06-14 00:16:00,53.7,52.0,29.50,ENE,57,13.8,13.8,94,0.04,-RA,,0.01,WeatherDisplay:10.37,2013-06-14 04:16:00,
2013-06-14 00:21:00,53.6,51.9,29.50,NE,54,19.6,19.6,94,0.03,-RA,,0.01,WeatherDisplay:10.37,2013-06-14 04:21:00,
2013-06-14 00:26:00,53.5,51.8,29.50,ENE,67,19.6,19.6,94,0.03,-RA,,0.01,WeatherDisplay:10.37,2013-06-14 04:26:00,
2013-06-14 00:31:00,53.5,51.8,29.49,NE,37,19.6,19.6,94,0.03,-RA,,0.01,WeatherDisplay:10.37,2013-06-14 04:31:00,
2013-06-14 00:36:00,53.4,51.7,29.50,NE,54,19.6,19.6,94,0.02,-RA,,0.01,WeatherDisplay:10.37,2013-06-14 04:36:00,
2013-06-14 00:41:00,53.4,51.7,29.50,NE,45,18.4,18.4,94,0.02,-RA,,0.01,WeatherDisplay:10.37,2013-06-14 04:41:00,
2013-06-14 00:46:00,53.3,51.6,29.50,NE,47,26.5,26.5,94,0.03,-RA,,0.02,WeatherDisplay:10.37,2013-06-14 04:46:00,
2013-06-14 00:51:00,53.3,51.6,29.50,ENE,59,16.1,16.1,94,0.03,-RA,,0.02,WeatherDisplay:10.37,2013-06-14 04:51:00,
2013-06-14 00:56:00,53.2,51.5,29.50,NNE,33,18.4,18.4,94,0.03,-RA,,0.02,WeatherDisplay:10.37,2013-06-14 04:56:00,
2013-06-14 01:01:00,53.2,51.5,29.50,NE,35,19.6,19.6,94,0.03,-RA,,0.03,WeatherDisplay:10.37,2013-06-14 05:01:00,
2013-06-14 01:06:00,53.2,51.5,29.51,NE,40,17.0,17.0,94,0.03,-RA,,0.03,WeatherDisplay:10.37,2013-06-14 05:06:00,
2013-06-14 01:11:00,53.1,51.4,29.51,ENE,63,19.6,19.6,94,0.03,-RA,,0.03,WeatherDisplay:10.37,2013-06-14 05:11:00,
2013-06-14 01:16:00,53.1,51.4,29.51,NE,54,17.3,17.3,94,0.03,-RA,,0.04,WeatherDisplay:10.37,2013-06-14 05:16:00,
2013-06-14 01:21:00,53.1,51.4,29.51,NNE,14,19.6,19.6,94,0.04,-RA,,0.05,WeatherDisplay:10.37,2013-06-14 05:21:00,
2013-06-14 01:26:00,53.1,51.4,29.51,NE,44,23.0,23.0,94,0.04,-RA,,0.05,WeatherDisplay:10.37,2013-06-14 05:26:00,
2013-06-14 01:31:00,53.1,51.4,29.51,NE,47,20.7,20.7,94,0.05,-RA,,0.06,WeatherDisplay:10.37,2013-06-14 05:31:00,
2013-06-14 01:36:00,53.2,51.5,29.51,ENE,78,18.4,18.4,94,0.06,-RA,,0.07,WeatherDisplay:10.37,2013-06-14 05:36:00,
2013-06-14 01:41:00,53.2,51.5,29.51,ENE,64,17.3,17.3,94,0.08,-RA,,0.09,WeatherDisplay:10.37,2013-06-14 05:41:00,
2013-06-14 01:46:00,53.2,51.5,29.51,ENE,64,8.1,8.1,94,0.08,-RA,,0.09,WeatherDisplay:10.37,2013-06-14 05:46:00,
2013-06-14 01:51:00,53.1,51.7,29.51,NE,39,19.6,19.6,95,0.10,-RA,,0.12,WeatherDisplay:10.37,2013-06-14 05:51:00,
2013-06-14 01:56:00,53.1,51.7,29.51,NE,40,23.0,23.0,95,0.11,-RA,,0.14,WeatherDisplay:10.37,2013-06-14 05:56:00,
2013-06-14 02:01:00,53.1,51.7,29.50,NE,48,18.4,18.4,95,0.13,-RA,,0.16,WeatherDisplay:10.37,2013-06-14 06:01:00,
2013-06-14 02:06:00,53.0,51.6,29.50,ENE,65,26.5,26.5,95,0.14, +RA,,0.17,WeatherDisplay:10.37,2013-06-14 06:06:00,
2013-06-14 02:11:00,53.0,51.6,29.51,NNE,25,27.0,27.0,95,0.15, +RA,,0.18,WeatherDisplay:10.37,2013-06-14 06:11:00,
2013-06-14 02:16:00,53.0,51.6,29.50,NNE,32,21.0,21.0,95,0.16, +RA,,0.19,WeatherDisplay:10.37,2013-06-14 06:16:00,
2013-06-14 02:21:00,53.0,51.3,29.51,NE,49,19.6,19.6,94,0.16, +RA,,0.20,WeatherDisplay:10.37,2013-06-14 06:21:00,
2013-06-14 02:26:00,52.9,51.2,29.51,NE,40,25.3,25.3,94,0.16, +RA,,0.21,WeatherDisplay:10.37,2013-06-14 06:26:00,
2013-06-14 02:31:00,52.9,51.2,29.51,NE,53,23.0,23.0,94,0.16, +RA,,0.21,WeatherDisplay:10.37,2013-06-14 06:31:00,
2013-06-14 02:36:00,52.9,51.2,29.52,NNE,31,19.6,19.6,94,0.16, +RA,,0.23,WeatherDisplay:10.37,2013-06-14 06:36:00,
2013-06-14 02:41:00,52.9,51.2,29.51,NE,49,20.7,20.7,94,0.18, +RA,,0.25,WeatherDisplay:10.37,2013-06-14 06:41:00,
2013-06-14 02:46:00,52.9,51.5,29.52,NE,49,18.4,18.4,95,0.18, +RA,,0.27,WeatherDisplay:10.37,2013-06-14 06:46:00,
2013-06-14 02:51:00,52.9,51.5,29.53,NE,49,19.6,19.6,95,0.20, +RA,,0.29,WeatherDisplay:10.37,2013-06-14 06:51:00,
2013-06-14 02:56:00,52.9,51.5,29.53,NE,36,25.3,25.3,95,0.19, +RA,,0.31,WeatherDisplay:10.37,2013-06-14 06:56:00,
2013-06-14 03:01:00,53.0,51.6,29.53,NE,35,15.0,15.0,95,0.19, +RA,,0.33,WeatherDisplay:10.37,2013-06-14 07:01:00,
2013-06-14 03:06:00,52.9,51.5,29.54,NNE,32,16.1,16.1,95,0.21, +RA,,0.38,WeatherDisplay:10.37,2013-06-14 07:06:00,
2013-06-14 03:11:00,52.9,51.5,29.54,NE,38,19.6,19.6,95,0.25, +RA,,0.44,WeatherDisplay:10.37,2013-06-14 07:11:00,
2013-06-14 03:16:00,52.8,51.4,29.54,NE,39,19.6,19.6,95,0.29, +RA,,0.48,WeatherDisplay:10.37,2013-06-14 07:16:00,
2013-06-14 03:21:00,52.8,51.4,29.54,NNE,27,21.9,21.9,95,0.31, +RA,,0.51,WeatherDisplay:10.37,2013-06-14 07:21:00,
2013-06-14 03:26:00,52.8,51.4,29.54,NNE,33,20.0,20.0,95,0.34, +RA,,0.54,WeatherDisplay:10.37,2013-06-14 07:26:00,
2013-06-14 03:31:00,52.8,51.4,29.54,NNE,32,17.3,17.3,95,0.35, +RA,,0.56,WeatherDisplay:10.37,2013-06-14 07:31:00,
2013-06-14 03:36:00,52.8,51.4,29.54,NE,42,18.0,18.0,95,0.36, +RA,,0.57,WeatherDisplay:10.37,2013-06-14 07:36:00,
2013-06-14 03:41:00,52.8,51.4,29.54,NNE,23,18.0,18.0,95,0.36, +RA,,0.59,WeatherDisplay:10.37,2013-06-14 07:41:00,
2013-06-14 03:46:00,52.8,51.4,29.54,NNE,31,18.0,18.0,95,0.36, +RA,,0.60,WeatherDisplay:10.37,2013-06-14 07:46:00,
2013-06-14 03:51:00,52.8,51.4,29.54,NE,41,14.0,14.0,95,0.35, +RA,,0.61,WeatherDisplay:10.37,2013-06-14 07:51:00,
2013-06-14 03:56:00,52.8,51.4,29.54,NNE,24,17.3,17.3,95,0.34, +RA,,0.62,WeatherDisplay:10.37,2013-06-14 07:56:00,
2013-06-14 04:01:00,52.8,51.4,29.54,NNE,25,16.1,16.1,95,0.33, +RA,,0.63,WeatherDisplay:10.37,2013-06-14 08:01:00,
2013-06-14 04:06:00,52.8,51.4,29.54,North,9,17.3,17.3,95,0.31,-RA,,0.63,WeatherDisplay:10.37,2013-06-14 08:06:00,
2013-06-14 04:11:00,52.9,51.5,29.55,NNE,31,19.6,19.6,95,0.29,-RA,,0.64,WeatherDisplay:10.37,2013-06-14 08:11:00,
2013-06-14 04:16:00,52.9,51.5,29.55,NE,40,19.6,19.6,95,0.24,-RA,,0.64,WeatherDisplay:10.37,2013-06-14 08:16:00,
2013-06-14 04:21:00,53.0,51.6,29.56,NNE,25,17.3,17.3,95,0.19,-RA,,0.65,WeatherDisplay:10.37,2013-06-14 08:21:00,
2013-06-14 04:26:00,53.0,51.6,29.56,NNE,23,19.6,19.6,95,0.16,-RA,,0.65,WeatherDisplay:10.37,2013-06-14 08:26:00,
2013-06-14 04:31:00,53.1,51.7,29.56,NNE,22,19.6,19.6,95,0.12,-RA,,0.65,WeatherDisplay:10.37,2013-06-14 08:31:00,
2013-06-14 04:36:00,53.1,51.7,29.56,NE,35,15.0,15.0,95,0.11,-RA,,0.66,WeatherDisplay:10.37,2013-06-14 08:36:00,
2013-06-14 04:41:00,53.2,51.8,29.56,NNE,33,14.0,14.0,95,0.09,-RA,,0.66,WeatherDisplay:10.37,2013-06-14 08:41:00,
2013-06-14 04:46:00,53.1,51.7,29.56,NNE,20,13.8,13.8,95,0.09,-RA,,0.67,WeatherDisplay:10.37,2013-06-14 08:46:00,
2013-06-14 04:51:00,53.2,51.8,29.56,NE,41,13.8,13.8,95,0.07,-RA,,0.67,WeatherDisplay:10.37,2013-06-14 08:51:00,
2013-06-14 04:56:00,53.1,51.7,29.57,NNE,28,13.0,13.0,95,0.06,-RA,,0.67,WeatherDisplay:10.37,2013-06-14 08:56:00,
2013-06-14 05:01:00,53.2,51.8,29.57,NE,38,16.0,16.0,95,0.05,-RA,,0.67,WeatherDisplay:10.37,2013-06-14 09:01:00,
2013-06-14 05:06:00,53.2,51.8,29.57,NNE,20,12.7,12.7,95,0.04,-RA,,0.67,WeatherDisplay:10.37,2013-06-14 09:06:00,
2013-06-14 05:11:00,53.2,51.8,29.58,NNE,31,17.3,17.3,95,0.04,-RA,,0.67,WeatherDisplay:10.37,2013-06-14 09:11:00,
2013-06-14 05:16:00,53.2,51.8,29.58,NNE,31,12.0,12.0,95,0.03,-RA,,0.67,WeatherDisplay:10.37,2013-06-14 09:16:00,
2013-06-14 05:21:00,53.3,51.9,29.58,NNE,22,17.3,17.3,95,0.03,-RA,,0.67,WeatherDisplay:10.37,2013-06-14 09:21:00,
2013-06-14 05:26:00,53.2,51.8,29.58,NNE,23,21.9,21.9,95,0.02,-RA,,0.67,WeatherDisplay:10.37,2013-06-14 09:26:00,
2013-06-14 05:31:00,53.2,51.8,29.58,NE,39,19.6,19.6,95,0.02,-RA,,0.67,WeatherDisplay:10.37,2013-06-14 09:31:00,
2013-06-14 05:36:00,53.3,51.9,29.58,NE,35,18.0,18.0,95,0.03,-RA,,0.68,WeatherDisplay:10.37,2013-06-14 09:36:00,
2013-06-14 05:41:00,53.3,51.6,29.58,NNE,19,19.6,19.6,94,0.02,-RA,,0.68,WeatherDisplay:10.37,2013-06-14 09:41:00,
2013-06-14 05:46:00,53.3,51.6,29.58,NE,49,25.3,25.3,94,0.03,-RA,,0.69,WeatherDisplay:10.37,2013-06-14 09:46:00,
2013-06-14 05:51:00,53.3,51.6,29.57,NE,46,20.7,20.7,94,0.03,-RA,,0.70,WeatherDisplay:10.37,2013-06-14 09:51:00,
2013-06-14 05:56:00,53.3,51.6,29.57,NNE,24,19.6,19.6,94,0.03,-RA,,0.70,WeatherDisplay:10.37,2013-06-14 09:56:00,
2013-06-14 06:01:00,53.3,51.6,29.57,NE,42,20.7,20.7,94,0.03,-RA,,0.70,WeatherDisplay:10.37,2013-06-14 10:01:00,
2013-06-14 06:06:00,53.4,51.7,29.57,NE,51,18.0,18.0,94,0.04,-RA,,0.71,WeatherDisplay:10.37,2013-06-14 10:06:00,
2013-06-14 06:11:00,53.4,51.7,29.57,NNE,26,21.9,21.9,94,0.04,-RA,,0.71,WeatherDisplay:10.37,2013-06-14 10:11:00,
2013-06-14 06:16:00,53.4,51.7,29.58,NE,38,21.9,21.9,94,0.04,-RA,,0.71,WeatherDisplay:10.37,2013-06-14 10:16:00,
2013-06-14 06:21:00,53.5,51.8,29.57,NE,49,18.4,18.4,94,0.04,-RA,,0.71,WeatherDisplay:10.37,2013-06-14 10:21:00,
2013-06-14 06:26:00,53.5,51.8,29.58,NE,51,17.3,17.3,94,0.04,-RA,,0.71,WeatherDisplay:10.37,2013-06-14 10:26:00,
2013-06-14 06:31:00,53.6,51.9,29.58,NE,38,17.3,17.3,94,0.04,-RA,,0.71,WeatherDisplay:10.37,2013-06-14 10:31:00,
2013-06-14 06:36:00,53.6,51.9,29.57,NNE,25,17.3,17.3,94,0.04,-RA,,0.71,WeatherDisplay:10.37,2013-06-14 10:36:00,
2013-06-14 06:41:00,53.7,52.0,29.57,NNE,33,14.0,14.0,94,0.04,-RA,,0.71,WeatherDisplay:10.37,2013-06-14 10:41:00,
2013-06-14 06:46:00,53.7,52.0,29.58,ENE,73,13.8,13.8,94,0.03,-RA,,0.71,WeatherDisplay:10.37,2013-06-14 10:46:00,
2013-06-14 06:51:00,53.8,52.1,29.59,NE,43,19.0,19.0,94,0.02,-RA,,0.71,WeatherDisplay:10.37,2013-06-14 10:51:00,
2013-06-14 06:56:00,53.8,52.1,29.60,NE,39,19.6,19.6,94,0.02,-RA,,0.71,WeatherDisplay:10.37,2013-06-14 10:56:00,
2013-06-14 07:01:00,53.9,52.2,29.60,ENE,58,12.7,12.7,94,0.01,-RA,,0.71,WeatherDisplay:10.37,2013-06-14 11:01:00,
2013-06-14 07:06:00,53.9,52.2,29.61,NNE,19,15.0,15.0,94,0.01,-RA,,0.71,WeatherDisplay:10.37,2013-06-14 11:06:00,
2013-06-14 07:11:00,54.0,52.3,29.61,North,355,17.3,17.3,94,0.00,-RA,,0.71,WeatherDisplay:10.37,2013-06-14 11:11:00,
2013-06-14 07:16:00,54.0,52.3,29.61,NNE,26,14.0,14.0,94,0.00,-RA,,0.71,WeatherDisplay:10.37,2013-06-14 11:16:00,
2013-06-14 07:21:00,54.1,52.4,29.61,NNE,20,13.8,13.8,94,0.00,-RA,,0.72,WeatherDisplay:10.37,2013-06-14 11:21:00,
2013-06-14 07:26:00,54.1,52.1,29.61,NNE,32,16.1,16.1,93,0.01,-RA,,0.72,WeatherDisplay:10.37,2013-06-14 11:26:00,
2013-06-14 07:31:00,54.2,52.5,29.62,North,5,12.0,12.0,94,0.01,-RA,,0.72,WeatherDisplay:10.37,2013-06-14 11:31:00,
2013-06-14 07:36:00,54.3,52.3,29.62,NNE,25,11.5,11.5,93,0.01,-RA,,0.72,WeatherDisplay:10.37,2013-06-14 11:36:00,
2013-06-14 07:41:00,54.4,52.4,29.62,NNE,15,11.5,11.5,93,0.01,-RA,,0.72,WeatherDisplay:10.37,2013-06-14 11:41:00,
2013-06-14 07:46:00,54.5,52.5,29.62,NE,35,12.0,12.0,93,0.01,-RA,,0.72,WeatherDisplay:10.37,2013-06-14 11:46:00,
2013-06-14 07:51:00,54.5,52.5,29.62,NNE,31,18.0,18.0,93,0.01,-RA,,0.72,WeatherDisplay:10.37,2013-06-14 11:51:00,
2013-06-14 07:56:00,54.6,52.6,29.62,NE,35,12.7,12.7,93,0.01,-RA,,0.72,WeatherDisplay:10.37,2013-06-14 11:56:00,
2013-06-14 08:01:00,54.6,52.6,29.62,NE,35,12.0,12.0,93,0.01,-RA,,0.72,WeatherDisplay:10.37,2013-06-14 12:01:00,
2013-06-14 08:06:00,54.7,52.7,29.63,NE,38,13.0,13.0,93,0.01,OVC,,0.72,WeatherDisplay:10.37,2013-06-14 12:06:00,
2013-06-14 08:11:00,54.8,52.8,29.63,NNE,27,15.0,15.0,93,0.01,OVC,,0.72,WeatherDisplay:10.37,2013-06-14 12:11:00,
2013-06-14 08:16:00,54.8,52.8,29.62,NNE,29,12.0,12.0,93,0.01,OVC,,0.72,WeatherDisplay:10.37,2013-06-14 12:16:00,
2013-06-14 08:21:00,55.3,53.3,29.63,ENE,69,13.8,13.8,93,0.01,OVC,,0.72,WeatherDisplay:10.37,2013-06-14 12:21:00,
2013-06-14 08:26:00,55.7,53.4,29.63,NE,45,17.3,17.3,92,0.01,OVC,,0.72,WeatherDisplay:10.37,2013-06-14 12:26:00,
2013-06-14 08:31:00,56.1,53.8,29.63,North,360,17.0,17.0,92,0.00,OVC,,0.72,WeatherDisplay:10.37,2013-06-14 12:31:00,
2013-06-14 08:36:00,56.3,53.7,29.64,NE,53,19.6,19.6,91,0.00,OVC,,0.72,WeatherDisplay:10.37,2013-06-14 12:36:00,
2013-06-14 08:41:00,56.6,53.7,29.64,ENE,58,23.0,23.0,90,0.00,OVC,,0.72,WeatherDisplay:10.37,2013-06-14 12:41:00,
2013-06-14 08:46:00,56.5,53.6,29.64,NE,46,25.3,25.3,90,0.00,OVC,,0.72,WeatherDisplay:10.37,2013-06-14 12:46:00,
2013-06-14 08:51:00,56.6,53.4,29.64,NNE,21,16.1,16.1,89,0.00,OVC,,0.72,WeatherDisplay:10.37,2013-06-14 12:51:00,
2013-06-14 08:56:00,56.7,53.5,29.64,NE,45,21.0,21.0,89,0.00,OVC,,0.72,WeatherDisplay:10.37,2013-06-14 12:56:00,
2013-06-14 09:01:00,56.8,53.3,29.64,NNE,27,23.0,23.0,88,0.00,OVC,,0.72,WeatherDisplay:10.37,2013-06-14 13:01:00,
2013-06-14 09:06:00,57.1,53.6,29.65,NNE,19,15.0,15.0,88,0.00,OVC,,0.72,WeatherDisplay:10.37,2013-06-14 13:06:00,
2013-06-14 09:11:00,57.2,53.7,29.64,NE,42,18.4,18.4,88,0.00,OVC,,0.72,WeatherDisplay:10.37,2013-06-14 13:11:00,
2013-06-14 09:16:00,57.2,53.4,29.65,NNE,32,25.3,25.3,87,0.00,OVC,,0.72,WeatherDisplay:10.37,2013-06-14 13:16:00,
2013-06-14 09:21:00,57.5,53.3,29.65,NE,36,17.0,17.0,86,0.00,OVC,,0.72,WeatherDisplay:10.37,2013-06-14 13:21:00,
2013-06-14 09:26:00,57.6,53.1,29.65,NNE,17,18.4,18.4,85,0.00,OVC,,0.72,WeatherDisplay:10.37,2013-06-14 13:26:00,
2013-06-14 09:31:00,57.8,53.3,29.65,ENE,57,23.0,23.0,85,0.00,OVC,,0.72,WeatherDisplay:10.37,2013-06-14 13:31:00,
2013-06-14 09:36:00,58.0,53.2,29.65,ENE,69,11.5,11.5,84,0.00,OVC,,0.72,WeatherDisplay:10.37,2013-06-14 13:36:00,
2013-06-14 09:41:00,57.9,52.1,29.65,NE,50,25.3,25.3,81,0.00,OVC,,0.72,WeatherDisplay:10.37,2013-06-14 13:41:00,
2013-06-14 09:46:00,58.0,52.2,29.65,ENE,77,16.0,16.0,81,0.00,OVC,,0.72,WeatherDisplay:10.37,2013-06-14 13:46:00,
2013-06-14 09:51:00,58.2,52.4,29.65,NE,34,14.0,14.0,81,0.00,OVC,,0.72,WeatherDisplay:10.37,2013-06-14 13:51:00,
2013-06-14 09:56:00,58.2,52.1,29.66,North,9,19.6,19.6,80,0.00,OVC,,0.72,WeatherDisplay:10.37,2013-06-14 13:56:00,
2013-06-14 10:01:00,58.2,51.7,29.66,NE,41,18.4,18.4,79,0.00,OVC,,0.72,WeatherDisplay:10.37,2013-06-14 14:01:00,
2013-06-14 10:06:00,58.1,50.9,29.67,NE,38,26.5,26.5,77,0.00,OVC,,0.72,WeatherDisplay:10.37,2013-06-14 14:06:00,
2013-06-14 10:11:00,58.3,51.5,29.67,ENE,78,16.1,16.1,78,0.00,OVC,,0.72,WeatherDisplay:10.37,2013-06-14 14:11:00,
2013-06-14 10:16:00,58.3,51.1,29.67,North,360,19.6,19.6,77,0.00,OVC,,0.72,WeatherDisplay:10.37,2013-06-14 14:16:00,
2013-06-14 10:21:00,58.4,51.6,29.68,NE,43,12.7,12.7,78,0.00,OVC,,0.72,WeatherDisplay:10.37,2013-06-14 14:21:00,
2013-06-14 10:26:00,58.4,51.2,29.68,NE,55,16.1,16.1,77,0.00,OVC,,0.72,WeatherDisplay:10.37,2013-06-14 14:26:00,
2013-06-14 10:31:00,58.5,51.3,29.69,NE,35,16.0,16.0,77,0.00,OVC,,0.72,WeatherDisplay:10.37,2013-06-14 14:31:00,
2013-06-14 10:36:00,58.5,51.3,29.70,NNE,28,13.0,13.0,77,0.00,OVC,,0.72,WeatherDisplay:10.37,2013-06-14 14:36:00,
2013-06-14 10:41:00,58.5,51.3,29.70,NNE,29,11.0,11.0,77,0.00,OVC,,0.72,WeatherDisplay:10.37,2013-06-14 14:41:00,
2013-06-14 10:46:00,58.4,50.9,29.70,North,9,16.1,16.1,76,0.00,OVC,,0.72,WeatherDisplay:10.37,2013-06-14 14:46:00,
2013-06-14 10:51:00,58.5,51.0,29.71,NNE,13,15.0,15.0,76,0.00,OVC,,0.72,WeatherDisplay:10.37,2013-06-14 14:51:00,
2013-06-14 10:56:00,58.5,51.0,29.71,NNE,31,16.1,16.1,76,0.00,OVC,,0.72,WeatherDisplay:10.37,2013-06-14 14:56:00,
2013-06-14 11:01:00,58.5,51.0,29.71,NE,53,11.5,11.5,76,0.00,OVC,,0.72,WeatherDisplay:10.37,2013-06-14 15:01:00,
2013-06-14 11:06:00,58.5,51.0,29.71,NE,36,18.0,18.0,76,0.00,OVC,,0.72,WeatherDisplay:10.37,2013-06-14 15:06:00,
2013-06-14 11:11:00,58.5,51.0,29.71,NNE,26,16.1,16.1,76,0.00,OVC,,0.72,WeatherDisplay:10.37,2013-06-14 15:11:00,
2013-06-14 11:16:00,58.8,51.6,29.70,NNE,31,12.7,12.7,77,0.00,OVC,,0.72,WeatherDisplay:10.37,2013-06-14 15:16:00,
2013-06-14 11:21:00,59.0,51.1,29.71,NNE,30,12.7,12.7,75,0.00,OVC,,0.72,WeatherDisplay:10.37,2013-06-14 15:21:00,
2013-06-14 11:26:00,59.1,50.8,29.71,NNE,23,21.9,21.9,74,0.00,OVC,,0.72,WeatherDisplay:10.37,2013-06-14 15:26:00,
2013-06-14 11:31:00,59.6,51.7,29.71,NNE,26,12.0,12.0,75,0.00,OVC,,0.72,WeatherDisplay:10.37,2013-06-14 15:31:00,
2013-06-14 11:36:00,59.9,51.6,29.71,NE,34,15.0,15.0,74,0.00,OVC,,0.72,WeatherDisplay:10.37,2013-06-14 15:36:00,
2013-06-14 11:41:00,60.0,51.7,29.71,NNE,17,15.0,15.0,74,0.00,OVC,,0.72,WeatherDisplay:10.37,2013-06-14 15:41:00,
2013-06-14 11:46:00,60.3,51.6,29.72,ENE,71,12.7,12.7,73,0.00,OVC,,0.72,WeatherDisplay:10.37,2013-06-14 15:46:00,
2013-06-14 11:51:00,60.2,51.1,29.72,NNE,18,19.6,19.6,72,0.00,OVC,,0.72,WeatherDisplay:10.37,2013-06-14 15:51:00,
2013-06-14 11:56:00,60.4,51.7,29.72,NE,46,11.5,11.5,73,0.00,OVC,,0.72,WeatherDisplay:10.37,2013-06-14 15:56:00,
2013-06-14 12:01:00,60.6,51.9,29.72,NE,42,11.5,11.5,73,0.00,OVC,,0.72,WeatherDisplay:10.37,2013-06-14 16:01:00,
2013-06-14 12:06:00,60.8,51.7,29.72,North,360,13.8,13.8,72,0.00,OVC,,0.72,WeatherDisplay:10.37,2013-06-14 16:06:00,
2013-06-14 12:11:00,60.9,51.4,29.72,NE,44,13.0,13.0,71,0.00,OVC,,0.72,WeatherDisplay:10.37,2013-06-14 16:11:00,
2013-06-14 12:16:00,60.9,51.4,29.72,NE,35,16.0,16.0,71,0.00,OVC,,0.72,WeatherDisplay:10.37,2013-06-14 16:16:00,
2013-06-14 12:21:00,60.9,51.4,29.72,NNE,28,13.0,13.0,71,0.00,OVC,,0.72,WeatherDisplay:10.37,2013-06-14 16:21:00,
2013-06-14 12:26:00,61.1,52.0,29.72,North,9,8.1,8.1,72,0.00,OVC,,0.72,WeatherDisplay:10.37,2013-06-14 16:26:00,
2013-06-14 12:31:00,61.5,52.0,29.73,NE,40,13.8,13.8,71,0.00,OVC,,0.72,WeatherDisplay:10.37,2013-06-14 16:31:00,
2013-06-14 12:36:00,61.6,51.7,29.73,NE,55,11.5,11.5,70,0.00,OVC,,0.72,WeatherDisplay:10.37,2013-06-14 16:36:00,
2013-06-14 12:41:00,61.7,51.4,29.72,NNE,28,11.5,11.5,69,0.00,OVC,,0.72,WeatherDisplay:10.37,2013-06-14 16:41:00,
2013-06-14 12:46:00,62.1,52.2,29.72,NNW,342,7.0,7.0,70,0.00,OVC,,0.72,WeatherDisplay:10.37,2013-06-14 16:46:00,
2013-06-14 12:51:00,62.5,52.2,29.72,NNE,30,16.0,16.0,69,0.00,OVC,,0.72,WeatherDisplay:10.37,2013-06-14 16:51:00,
2013-06-14 12:56:00,62.6,51.5,29.72,NNE,14,17.3,17.3,67,0.00,OVC,,0.72,WeatherDisplay:10.37,2013-06-14 16:56:00,
2013-06-14 13:01:00,62.6,51.1,29.72,NNE,17,14.0,14.0,66,0.00,OVC,,0.72,WeatherDisplay:10.37,2013-06-14 17:01:00,
2013-06-14 13:06:00,63.2,51.6,29.73,NNE,26,13.8,13.8,66,0.00,BKN,,0.72,WeatherDisplay:10.37,2013-06-14 17:06:00,
2013-06-14 13:11:00,63.2,51.2,29.72,NNE,22,17.3,17.3,65,0.00,BKN,,0.72,WeatherDisplay:10.37,2013-06-14 17:11:00,
2013-06-14 13:16:00,63.4,52.2,29.73,North,5,9.2,9.2,67,0.00,BKN,,0.72,WeatherDisplay:10.37,2013-06-14 17:16:00,
2013-06-14 13:21:00,63.3,51.3,29.73,NNE,13,14.0,14.0,65,0.00,BKN,,0.72,WeatherDisplay:10.37,2013-06-14 17:21:00,
2013-06-14 13:26:00,63.0,51.0,29.73,NE,49,12.7,12.7,65,0.00,BKN,,0.72,WeatherDisplay:10.37,2013-06-14 17:26:00,
2013-06-14 13:31:00,62.7,51.2,29.73,NNW,346,15.0,15.0,66,0.00,BKN,,0.72,WeatherDisplay:10.37,2013-06-14 17:31:00,
2013-06-14 13:36:00,62.5,51.0,29.73,North,9,13.8,13.8,66,0.00,BKN,,0.72,WeatherDisplay:10.37,2013-06-14 17:36:00,
2013-06-14 13:41:00,62.6,51.9,29.73,ENE,68,10.4,10.4,68,0.00,BKN,,0.72,WeatherDisplay:10.37,2013-06-14 17:41:00,
2013-06-14 13:46:00,62.8,51.7,29.73,NNW,336,8.1,8.1,67,0.00,BKN,,0.72,WeatherDisplay:10.37,2013-06-14 17:46:00,
2013-06-14 13:51:00,62.7,51.6,29.74,North,351,11.5,11.5,67,0.00,BKN,,0.72,WeatherDisplay:10.37,2013-06-14 17:51:00,
2013-06-14 13:56:00,62.7,51.6,29.74,North,360,8.1,8.1,67,0.00,BKN,,0.72,WeatherDisplay:10.37,2013-06-14 17:56:00,
2013-06-14 14:01:00,63.0,51.5,29.74,NE,34,11.5,11.5,66,0.00,BKN,,0.72,WeatherDisplay:10.37,2013-06-14 18:01:00,
2013-06-14 14:06:00,63.2,51.6,29.74,NE,35,12.7,12.7,66,0.00,FEW,,0.72,WeatherDisplay:10.37,2013-06-14 18:06:00,
2013-06-14 14:11:00,63.3,51.7,29.74,NE,47,10.4,10.4,66,0.00,FEW,,0.72,WeatherDisplay:10.37,2013-06-14 18:11:00,
2013-06-14 14:16:00,63.5,51.9,29.74,NE,40,9.2,9.2,66,0.00,FEW,,0.72,WeatherDisplay:10.37,2013-06-14 18:16:00,
2013-06-14 14:21:00,64.0,52.4,29.73,ENE,58,4.0,4.0,66,0.00,FEW,,0.72,WeatherDisplay:10.37,2013-06-14 18:21:00,
2013-06-14 14:26:00,64.5,52.5,29.73,ENE,59,5.0,5.0,65,0.00,FEW,,0.72,WeatherDisplay:10.37,2013-06-14 18:26:00,
2013-06-14 14:31:00,64.5,52.5,29.73,NNE,27,5.8,5.8,65,0.00,FEW,,0.72,WeatherDisplay:10.37,2013-06-14 18:31:00,
2013-06-14 14:36:00,64.6,52.6,29.73,NNE,22,6.9,6.9,65,0.00,FEW,,0.72,WeatherDisplay:10.37,2013-06-14 18:36:00,
2013-06-14 14:41:00,64.6,53.0,29.73,ENE,65,8.1,8.1,66,0.00,FEW,,0.72,WeatherDisplay:10.37,2013-06-14 18:41:00,
2013-06-14 14:46:00,64.9,53.3,29.73,NE,44,6.0,6.0,66,0.00,FEW,,0.72,WeatherDisplay:10.37,2013-06-14 18:46:00,
2013-06-14 14:51:00,64.9,53.3,29.74,NE,40,4.6,4.6,66,0.00,FEW,,0.72,WeatherDisplay:10.37,2013-06-14 18:51:00,
2013-06-14 14:56:00,65.9,54.6,29.73,NE,55,1.1,1.1,67,0.00,FEW,,0.72,WeatherDisplay:10.37,2013-06-14 18:56:00,
2013-06-14 15:01:00,67.0,53.5,29.73,NNE,17,3.5,3.5,62,0.00,FEW,,0.72,WeatherDisplay:10.37,2013-06-14 19:01:00,
2013-06-14 15:06:00,68.5,55.0,29.72,NNE,19,2.3,2.3,62,0.00,SCT,,0.72,WeatherDisplay:10.37,2013-06-14 19:06:00,
2013-06-14 15:11:00,68.7,53.3,29.73,South,186,4.6,4.6,58,0.00,SCT,,0.72,WeatherDisplay:10.37,2013-06-14 19:11:00,
2013-06-14 15:16:00,66.6,53.6,29.72,SSW,198,6.9,6.9,63,0.00,SCT,,0.72,WeatherDisplay:10.37,2013-06-14 19:16:00,
2013-06-14 15:21:00,65.3,53.6,29.73,SW,221,11.5,11.5,66,0.00,SCT,,0.72,WeatherDisplay:10.37,2013-06-14 19:21:00,
2013-06-14 15:26:00,64.7,53.5,29.72,SSW,195,12.7,12.7,67,0.00,SCT,,0.72,WeatherDisplay:10.37,2013-06-14 19:26:00,
2013-06-14 15:31:00,64.2,53.8,29.73,SW,218,12.7,12.7,69,0.00,SCT,,0.72,WeatherDisplay:10.37,2013-06-14 19:31:00,
2013-06-14 15:36:00,64.2,54.2,29.72,South,180,9.2,9.2,70,0.00,SCT,,0.72,WeatherDisplay:10.37,2013-06-14 19:36:00,
2013-06-14 15:41:00,64.6,53.8,29.73,SSW,195,12.7,12.7,68,0.00,SCT,,0.72,WeatherDisplay:10.37,2013-06-14 19:41:00,
2013-06-14 15:46:00,64.8,53.6,29.72,South,188,11.5,11.5,67,0.00,SCT,,0.72,WeatherDisplay:10.37,2013-06-14 19:46:00,
2013-06-14 15:51:00,64.7,54.7,29.72,SW,232,13.8,13.8,70,0.00,SCT,,0.72,WeatherDisplay:10.37,2013-06-14 19:51:00,
2013-06-14 15:56:00,65.0,54.2,29.72,SSW,207,11.5,11.5,68,0.00,SCT,,0.72,WeatherDisplay:10.37,2013-06-14 19:56:00,
2013-06-14 16:01:00,64.4,54.8,29.72,SSW,199,16.1,16.1,71,0.00,SCT,,0.72,WeatherDisplay:10.37,2013-06-14 20:01:00,
2013-06-14 16:06:00,63.7,56.0,29.72,SSW,209,15.0,15.0,76,0.00,BKN,,0.72,WeatherDisplay:10.37,2013-06-14 20:06:00,
2013-06-14 16:11:00,63.3,56.0,29.72,SW,225,15.0,15.0,77,0.00,BKN,,0.72,WeatherDisplay:10.37,2013-06-14 20:11:00,
2013-06-14 16:16:00,62.8,55.8,29.72,SW,231,12.7,12.7,78,0.00,BKN,,0.72,WeatherDisplay:10.37,2013-06-14 20:16:00,
2013-06-14 16:21:00,62.6,56.0,29.72,SSW,204,12.7,12.7,79,0.00,BKN,,0.72,WeatherDisplay:10.37,2013-06-14 20:21:00,
2013-06-14 16:26:00,62.9,56.3,29.73,SW,225,12.7,12.7,79,0.00,BKN,,0.72,WeatherDisplay:10.37,2013-06-14 20:26:00,
2013-06-14 16:31:00,62.8,56.2,29.72,SW,221,11.5,11.5,79,0.00,BKN,,0.72,WeatherDisplay:10.37,2013-06-14 20:31:00,
2013-06-14 16:36:00,63.0,56.4,29.72,SW,219,10.4,10.4,79,0.00,BKN,,0.72,WeatherDisplay:10.37,2013-06-14 20:36:00,
2013-06-14 16:41:00,62.7,56.1,29.72,SW,221,12.7,12.7,79,0.00,BKN,,0.72,WeatherDisplay:10.37,2013-06-14 20:41:00,
2013-06-14 16:46:00,62.8,56.2,29.72,SW,223,12.7,12.7,79,0.00,BKN,,0.72,WeatherDisplay:10.37,2013-06-14 20:46:00,
2013-06-14 16:51:00,63.1,56.5,29.72,SW,233,11.0,11.0,79,0.00,BKN,,0.72,WeatherDisplay:10.37,2013-06-14 20:51:00,
2013-06-14 16:56:00,63.1,56.1,29.72,SW,221,12.7,12.7,78,0.00,BKN,,0.72,WeatherDisplay:10.37,2013-06-14 20:56:00,
2013-06-14 17:01:00,63.2,56.2,29.72,WSW,243,12.7,12.7,78,0.00,BKN,,0.72,WeatherDisplay:10.37,2013-06-14 21:01:00,
2013-06-14 17:06:00,63.1,55.8,29.73,WSW,241,13.8,13.8,77,0.00,CLR,,0.72,WeatherDisplay:10.37,2013-06-14 21:06:00,
2013-06-14 17:11:00,62.8,55.8,29.73,WSW,242,12.7,12.7,78,0.00,CLR,,0.72,WeatherDisplay:10.37,2013-06-14 21:11:00,
2013-06-14 17:16:00,62.7,55.7,29.73,WSW,242,18.4,18.4,78,0.00,CLR,,0.72,WeatherDisplay:10.37,2013-06-14 21:16:00,
2013-06-14 17:21:00,63.3,56.3,29.73,WSW,243,16.1,16.1,78,0.00,CLR,,0.72,WeatherDisplay:10.37,2013-06-14 21:21:00,
2013-06-14 17:26:00,63.3,56.0,29.73,WSW,244,15.0,15.0,77,0.00,CLR,,0.72,WeatherDisplay:10.37,2013-06-14 21:26:00,
2013-06-14 17:31:00,63.3,55.2,29.73,WSW,249,16.1,16.1,75,0.00,CLR,,0.72,WeatherDisplay:10.37,2013-06-14 21:31:00,
2013-06-14 17:36:00,63.8,55.4,29.73,WSW,258,11.5,11.5,74,0.00,CLR,,0.72,WeatherDisplay:10.37,2013-06-14 21:36:00,
2013-06-14 17:41:00,64.3,55.8,29.73,West,265,11.5,11.5,74,0.00,CLR,,0.72,WeatherDisplay:10.37,2013-06-14 21:41:00,
2013-06-14 17:46:00,64.4,55.6,29.73,West,275,10.4,10.4,73,0.00,CLR,,0.72,WeatherDisplay:10.37,2013-06-14 21:46:00,
2013-06-14 17:51:00,64.4,55.2,29.73,West,263,12.0,12.0,72,0.00,CLR,,0.72,WeatherDisplay:10.37,2013-06-14 21:51:00,
2013-06-14 17:56:00,64.4,55.2,29.73,WSW,248,13.8,13.8,72,0.00,CLR,,0.72,WeatherDisplay:10.37,2013-06-14 21:56:00,
2013-06-14 18:01:00,64.4,55.2,29.73,West,279,13.8,13.8,72,0.00,CLR,,0.72,WeatherDisplay:10.37,2013-06-14 22:01:00,
2013-06-14 18:06:00,64.3,55.1,29.74,WSW,246,15.0,15.0,72,0.00,CLR,,0.72,WeatherDisplay:10.37,2013-06-14 22:06:00,
2013-06-14 18:11:00,64.2,55.0,29.74,West,259,11.5,11.5,72,0.00,CLR,,0.72,WeatherDisplay:10.37,2013-06-14 22:11:00,
2013-06-14 18:16:00,64.5,55.3,29.74,West,275,13.8,13.8,72,0.00,CLR,,0.72,WeatherDisplay:10.37,2013-06-14 22:16:00,
2013-06-14 18:21:00,64.6,55.4,29.74,WSW,239,13.8,13.8,72,0.00,CLR,,0.72,WeatherDisplay:10.37,2013-06-14 22:21:00,
2013-06-14 18:26:00,64.7,55.5,29.74,WNW,285,10.4,10.4,72,0.00,CLR,,0.72,WeatherDisplay:10.37,2013-06-14 22:26:00,
2013-06-14 18:31:00,64.8,55.6,29.74,WNW,285,13.8,13.8,72,0.00,CLR,,0.72,WeatherDisplay:10.37,2013-06-14 22:31:00,
2013-06-14 18:36:00,64.8,55.9,29.74,WNW,283,12.7,12.7,73,0.00,CLR,,0.72,WeatherDisplay:10.37,2013-06-14 22:36:00,
2013-06-14 18:41:00,64.8,55.9,29.74,WNW,285,12.0,12.0,73,0.00,CLR,,0.72,WeatherDisplay:10.37,2013-06-14 22:41:00,
2013-06-14 18:46:00,64.9,56.0,29.74,WNW,285,11.5,11.5,73,0.00,CLR,,0.72,WeatherDisplay:10.37,2013-06-14 22:46:00,
2013-06-14 18:51:00,65.0,56.1,29.74,WNW,298,11.5,11.5,73,0.00,CLR,,0.72,WeatherDisplay:10.37,2013-06-14 22:51:00,
2013-06-14 18:56:00,65.2,55.9,29.74,WNW,284,13.0,13.0,72,0.00,CLR,,0.72,WeatherDisplay:10.37,2013-06-14 22:56:00,
2013-06-14 19:01:00,65.2,55.9,29.73,WNW,289,12.0,12.0,72,0.00,CLR,,0.72,WeatherDisplay:10.37,2013-06-14 23:01:00,
2013-06-14 19:06:00,65.2,55.9,29.73,WSW,250,12.7,12.7,72,0.00,CLR,,0.72,WeatherDisplay:10.37,2013-06-14 23:06:00,
2013-06-14 19:11:00,65.1,56.2,29.74,West,275,13.8,13.8,73,0.00,CLR,,0.72,WeatherDisplay:10.37,2013-06-14 23:11:00,
2013-06-14 19:16:00,64.7,56.2,29.74,West,270,13.0,13.0,74,0.00,CLR,,0.72,WeatherDisplay:10.37,2013-06-14 23:16:00,
2013-06-14 19:21:00,64.3,56.6,29.74,West,277,11.5,11.5,76,0.00,CLR,,0.72,WeatherDisplay:10.37,2013-06-14 23:21:00,
2013-06-14 19:26:00,64.0,56.6,29.74,WNW,291,11.0,11.0,77,0.00,CLR,,0.72,WeatherDisplay:10.37,2013-06-14 23:26:00,
2013-06-14 19:31:00,63.7,56.7,29.74,West,264,11.5,11.5,78,0.00,CLR,,0.72,WeatherDisplay:10.37,2013-06-14 23:31:00,
2013-06-14 19:36:00,63.4,56.8,29.74,West,276,10.4,10.4,79,0.00,CLR,,0.72,WeatherDisplay:10.37,2013-06-14 23:36:00,
2013-06-14 19:41:00,62.9,57.0,29.74,West,268,10.4,10.4,81,0.00,CLR,,0.72,WeatherDisplay:10.37,2013-06-14 23:41:00,
2013-06-14 19:46:00,62.6,57.4,29.75,West,279,12.7,12.7,83,0.00,CLR,,0.72,WeatherDisplay:10.37,2013-06-14 23:46:00,
2013-06-14 19:51:00,62.4,57.2,29.75,WNW,286,10.4,10.4,83,0.00,CLR,,0.72,WeatherDisplay:10.37,2013-06-14 23:51:00,
2013-06-14 19:56:00,62.3,57.4,29.75,WNW,283,13.0,13.0,84,0.00,CLR,,0.72,WeatherDisplay:10.37,2013-06-14 23:56:00,
2013-06-14 20:01:00,62.5,57.6,29.75,WNW,294,12.7,12.7,84,0.00,CLR,,0.72,WeatherDisplay:10.37,2013-06-15 00:01:00,
2013-06-14 20:06:00,62.8,57.6,29.75,West,276,10.4,10.4,83,0.00,OVC,,0.72,WeatherDisplay:10.37,2013-06-15 00:06:00,
2013-06-14 20:11:00,63.1,57.9,29.75,West,272,6.9,6.9,83,0.00,OVC,,0.72,WeatherDisplay:10.37,2013-06-15 00:11:00,
2013-06-14 20:16:00,63.1,57.9,29.75,WNW,284,11.5,11.5,83,0.00,OVC,,0.72,WeatherDisplay:10.37,2013-06-15 00:16:00,
2013-06-14 20:21:00,63.1,57.9,29.75,WNW,288,9.2,9.2,83,0.00,OVC,,0.72,WeatherDisplay:10.37,2013-06-15 00:21:00,
2013-06-14 20:26:00,63.0,58.1,29.76,West,281,8.1,8.1,84,0.00,OVC,,0.72,WeatherDisplay:10.37,2013-06-15 00:26:00,
2013-06-14 20:31:00,63.0,58.1,29.75,West,277,8.1,8.1,84,0.00,OVC,,0.72,WeatherDisplay:10.37,2013-06-15 00:31:00,
2013-06-14 20:36:00,62.9,58.0,29.76,WNW,298,10.0,10.0,84,0.00,OVC,,0.72,WeatherDisplay:10.37,2013-06-15 00:36:00,
2013-06-14 20:41:00,62.9,58.0,29.76,West,281,6.9,6.9,84,0.00,OVC,,0.72,WeatherDisplay:10.37,2013-06-15 00:41:00,
2013-06-14 20:46:00,62.9,58.0,29.76,West,280,9.2,9.2,84,0.00,OVC,,0.72,WeatherDisplay:10.37,2013-06-15 00:46:00,
2013-06-14 20:51:00,63.0,58.1,29.75,WNW,285,10.4,10.4,84,0.00,OVC,,0.72,WeatherDisplay:10.37,2013-06-15 00:51:00,
2013-06-14 20:56:00,63.1,57.9,29.75,West,279,12.7,12.7,83,0.00,OVC,,0.72,WeatherDisplay:10.37,2013-06-15 00:56:00,
2013-06-14 21:01:00,63.3,57.7,29.75,West,276,13.8,13.8,82,0.00,OVC,,0.72,WeatherDisplay:10.37,2013-06-15 01:01:00,
2013-06-14 21:06:00,63.4,57.8,29.76,WNW,285,11.5,11.5,82,0.00,OVC,,0.72,WeatherDisplay:10.37,2013-06-15 01:06:00,
2013-06-14 21:11:00,63.1,57.5,29.76,WNW,288,6.9,6.9,82,0.00,OVC,,0.72,WeatherDisplay:10.37,2013-06-15 01:11:00,
2013-06-14 21:16:00,62.9,57.7,29.76,WNW,294,8.0,8.8,83,0.00,OVC,,0.72,WeatherDisplay:10.37,2013-06-15 01:16:00,
2013-06-14 21:21:00,62.8,57.6,29.76,WNW,292,10.4,10.4,83,0.00,OVC,,0.72,WeatherDisplay:10.37,2013-06-15 01:21:00,
2013-06-14 21:26:00,62.8,57.6,29.77,NW,325,9.2,9.2,83,0.00,OVC,,0.72,WeatherDisplay:10.37,2013-06-15 01:26:00,
2013-06-14 21:31:00,62.7,57.5,29.77,WNW,296,10.4,10.4,83,0.00,OVC,,0.72,WeatherDisplay:10.37,2013-06-15 01:31:00,
2013-06-14 21:36:00,62.5,57.3,29.77,NW,306,10.4,10.4,83,0.00,OVC,,0.72,WeatherDisplay:10.37,2013-06-15 01:36:00,
2013-06-14 21:41:00,62.3,57.1,29.78,WNW,302,10.4,10.4,83,0.00,OVC,,0.72,WeatherDisplay:10.37,2013-06-15 01:41:00,
2013-06-14 21:46:00,62.2,57.0,29.78,NW,313,10.4,10.4,83,0.00,OVC,,0.72,WeatherDisplay:10.37,2013-06-15 01:46:00,
2013-06-14 21:51:00,62.0,56.8,29.78,WNW,297,8.1,8.1,83,0.00,OVC,,0.72,WeatherDisplay:10.37,2013-06-15 01:51:00,
2013-06-14 21:56:00,61.9,56.7,29.78,NW,313,9.2,9.2,83,0.00,OVC,,0.72,WeatherDisplay:10.37,2013-06-15 01:56:00,
2013-06-14 22:01:00,61.7,56.8,29.78,NW,304,10.4,10.4,84,0.00,OVC,,0.72,WeatherDisplay:10.37,2013-06-15 02:01:00,
2013-06-14 22:06:00,61.5,56.6,29.78,WNW,294,5.8,5.8,84,0.00,CLR,,0.72,WeatherDisplay:10.37,2013-06-15 02:06:00,
2013-06-14 22:11:00,61.4,56.5,29.78,WNW,296,6.9,6.9,84,0.00,CLR,,0.72,WeatherDisplay:10.37,2013-06-15 02:11:00,
2013-06-14 22:16:00,61.3,56.8,29.78,WNW,295,8.1,8.1,85,0.00,CLR,,0.72,WeatherDisplay:10.37,2013-06-15 02:16:00,
2013-06-14 22:21:00,61.3,56.8,29.78,WNW,302,8.0,8.0,85,0.00,CLR,,0.72,WeatherDisplay:10.37,2013-06-15 02:21:00,
2013-06-14 22:26:00,61.3,56.8,29.78,WNW,298,7.0,7.0,85,0.00,CLR,,0.72,WeatherDisplay:10.37,2013-06-15 02:26:00,
2013-06-14 22:31:00,61.3,57.1,29.78,WNW,294,10.4,10.4,86,0.00,CLR,,0.72,WeatherDisplay:10.37,2013-06-15 02:31:00,
2013-06-14 22:36:00,61.3,57.1,29.78,WNW,284,10.4,10.4,86,0.00,CLR,,0.72,WeatherDisplay:10.37,2013-06-15 02:36:00,
2013-06-14 22:41:00,61.2,57.0,29.77,WNW,301,9.2,9.2,86,0.00,CLR,,0.72,WeatherDisplay:10.37,2013-06-15 02:41:00,
2013-06-14 22:46:00,60.9,56.7,29.78,WNW,291,6.9,6.9,86,0.00,CLR,,0.72,WeatherDisplay:10.37,2013-06-15 02:46:00,
2013-06-14 22:51:00,60.8,56.9,29.77,WNW,296,7.0,7.0,87,0.00,CLR,,0.72,WeatherDisplay:10.37,2013-06-15 02:51:00,
2013-06-14 22:56:00,60.6,56.7,29.78,WNW,290,10.4,10.4,87,0.00,CLR,,0.72,WeatherDisplay:10.37,2013-06-15 02:56:00,
2013-06-14 23:01:00,60.5,56.6,29.78,WNW,283,9.2,9.2,87,0.00,CLR,,0.72,WeatherDisplay:10.37,2013-06-15 03:01:00,
2013-06-14 23:06:00,60.4,56.8,29.78,WNW,286,7.0,7.0,88,0.00,CLR,,0.72,WeatherDisplay:10.37,2013-06-15 03:06:00,
2013-06-14 23:11:00,60.2,57.9,29.78,WSW,238,0.0,0.0,92,0.00,CLR,,0.72,WeatherDisplay:10.37,2013-06-15 03:11:00,
2013-06-14 23:16:00,60.1,57.8,29.78,SW,228,1.1,1.1,92,0.00,CLR,,0.72,WeatherDisplay:10.37,2013-06-15 03:16:00,
2013-06-14 23:21:00,60.0,57.7,29.78,SW,226,0.0,0.0,92,0.00,CLR,,0.72,WeatherDisplay:10.37,2013-06-15 03:21:00,
2013-06-14 23:26:00,59.9,57.6,29.79,SW,227,0.0,0.0,92,0.00,CLR,,0.72,WeatherDisplay:10.37,2013-06-15 03:26:00,
2013-06-14 23:31:00,59.6,57.3,29.79,SW,227,0.0,0.0,92,0.00,CLR,,0.72,WeatherDisplay:10.37,2013-06-15 03:31:00,
2013-06-14 23:36:00,59.3,57.0,29.79,SW,224,0.0,0.0,92,0.00,CLR,,0.72,WeatherDisplay:10.37,2013-06-15 03:36:00,
2013-06-14 23:41:00,58.9,56.6,29.79,SW,225,0.0,0.0,92,0.00,CLR,,0.72,WeatherDisplay:10.37,2013-06-15 03:41:00,
2013-06-14 23:46:00,58.6,56.6,29.79,SW,225,0.0,0.0,93,0.00,CLR,,0.72,WeatherDisplay:10.37,2013-06-15 03:46:00,
2013-06-14 23:51:00,58.2,56.2,29.79,SW,225,0.0,0.0,93,0.00,CLR,,0.72,WeatherDisplay:10.37,2013-06-15 03:51:00,
2013-06-14 23:56:00,58.0,56.0,29.80,SW,225,0.0,0.0,93,0.00,CLR,,0.72,WeatherDisplay:10.37,2013-06-15 03:56:00,